Regional Weather Roundup
Issued by NWS

Home | Current Version | Previous Version | Text Only | Print | Product List | Glossary Off
Versions: 1 2 3 4 5 6 7 8 9 10 11 12 13 14 15 16 17 18 19 20 21 22 23 24 25 26 27 28 29 30 31 32 33 34 35 36 37 38 39 40 41 42 43 44 45 46 47 48 49

000
ASUS43 KDMX 230407
RWRIA

WEATHER ROUNDUP FOR IOWA
NATIONAL WEATHER SERVICE DES MOINES IA
1100 PM CDT MON SEP 22 2014

NOTE: "FAIR" INDICATES FEW OR NO CLOUDS BELOW 12,000 FEET WITH NO
SIGNIFICANT WEATHER AND/OR OBSTRUCTIONS TO VISIBILITY.

* - THESE STATIONS ARE NOT NWS STATIONS...THUS NOT UNDER NWS
QUALITY CONTROL.  THEY ALSO DO NOT REPORT WEATHER SUCH
AS PRECIPITATION OR FOG.

IAZ001>003-012>014-020>022-031>034-043>046-230500-
   NORTHWEST IOWA

CITY           SKY/WX    TMP DP  RH WIND       PRES   REMARKS
CARROLL *      CLEAR     52  50  93 S3        30.21S
CHEROKEE *     MOCLDY    55  52  88 CALM      30.19S
DENISON *      CLEAR     57  52  82 SE5       30.19R
LE MARS *      CLEAR     57  52  82 CALM      30.18S
ORANGE CITY *  CLEAR     61  52  72 S5        30.18S
SHELDON *      CLEAR     55  50  82 S6        30.17S
SIOUX CITY     MOCLDY    56  51  84 SE7       30.17S
SPENCER          N/A     52  48  86 S6        30.19S
STORM LAKE *   CLEAR     55  52  88 S7        30.20S
$$

IAZ055>058-069>071-079>083-090>094-230500-
   SOUTHWEST IOWA

CITY           SKY/WX    TMP DP  RH WIND       PRES   REMARKS
ATLANTIC *     CLEAR     57  52  82 S5        30.21S
AUDUBON *      CLEAR     52  46  82 CALM      30.22S
CLARINDA *     CLEAR     54  52  94 CALM      30.23S
COUNCIL BLFS * CLEAR     59  54  82 SE6       30.19S
CRESTON *      CLEAR     55  52  88 S6        30.23S
HARLAN  *      CLEAR     54  52  94 CALM      30.24S
LAMONI         PTCLDY    59  51  75 S7        30.23F
RED OAK *      PTCLDY    57  54  88 CALM      30.21S
SHENANDOAH *   CLEAR     57  52  82 SE7       30.22S
$$

IAZ047>049-059>061-072>074-084-230500-
   CENTRAL IOWA

CITY           SKY/WX    TMP DP  RH WIND       PRES   REMARKS
AMES           PTCLDY    54  50  86 S5        30.22S
ANKENY *       CLEAR     55  52  88 CALM      30.23S
CHARITON *     PTCLDY    55  52  88 S5        30.24S FOG
DES MOINES     PTCLDY    59  51  75 S8        30.22S
GRINNELL*      CLEAR     54  48  82 S6        30.24S
KNOXVILLE *    CLEAR     57  50  77 SE6       30.22F
MARSHALLTOWN   PTCLDY    54  49  83 S6        30.22S
PELLA *        PTCLDY    55  50  82 SE3       30.25S
PERRY *          N/A     53  51  93 S5        30.22S
$$

IAZ004>006-015-016-023>025-035-036-230500-
   NORTH CENTRAL IOWA

CITY           SKY/WX    TMP DP  RH WIND       PRES   REMARKS
ALGONA *       CLEAR     54  48  82 S7        30.20S
CLARION *        N/A     54  50  87 S6        30.21S
ESTHERVILLE    PTCLDY    51  47  86 S7        30.19S
FORT DODGE *   PTCLDY    55  46  71 CALM      30.21F
MASON CITY     CLEAR     48  45  89 S6        30.23R
FOREST CITY *  CLEAR     50  48  93 CALM      30.21R
IOWA FALLS *     N/A     52  48  87 S6        30.24R
$$

IAZ007>011-017>019-026>030-037>042-050>054-066-230500-
   NORTHEAST IOWA

CITY           SKY/WX    TMP DP  RH WIND       PRES   REMARKS
CEDAR RAPIDS   CLEAR     50  48  93 CALM      30.24S
CHARLES CITY * CLEAR     54  48  82 S6        30.23R
CLINTON *      CLEAR     50  45  81 CALM      30.28F
DECORAH *      CLEAR     54  48  82 CALM      30.22S
DUBUQUE        CLEAR     50  46  86 S3        30.26S
MONTICELLO *   CLEAR     46  46 100 CALM      30.25S
OELWEIN *        N/A     50  48  93 S6        30.24S
WATERLOO       CLEAR     55  48  77 SE5       30.22S
$$

IAZ064-065-067-068-078-230500-
   EAST CENTRAL IOWA

CITY           SKY/WX    TMP DP  RH WIND       PRES   REMARKS
DAVENPORT      CLEAR     51  45  79 CALM      30.26S
IOWA CITY      CLEAR     52  50  93 CALM      30.27R
MT. PLEASANT * CLEAR     52  46  82 CALM      30.25F
MUSCATINE *    CLEAR     50  46  87 CALM      30.26S
QUAD CITIES    CLEAR     48  46  93 CALM      30.26S
$$

IAZ062-063-075>077-085>089-095>099-230500-
   SOUTHEAST IOWA

CITY           SKY/WX    TMP DP  RH WIND       PRES   REMARKS
BURLINGTON     CLEAR     51  48  89 CALM      30.26S
FAIRFIELD *    CLEAR     52  48  87 SE3       30.25S
FORT MADISON * CLEAR     52  48  87 CALM      30.26F
KEOKUK *       FOG       54  52  94 E3        30.25S VSB 3/4
OSKALOOSA *      N/A     52  48  87 S6        30.25S
CENTERVILLE *  CLEAR     50  50 100 SE3       30.26S
OTTUMWA        PTCLDY    54  49  83 S6        30.24F
WASHINGTON *   CLEAR     52  48  87 SE5       30.25S
$$

ABBREVIATIONS USED IN REMARKS
   TC - TEMPERATURES IN CELSIUS
  WCI - WIND CHILL INDEX
   HX - HEAT INDEX
  VSB - VISIBILITY
$$




USA.gov is the U.S. government's official web portal to all federal, state and local government web resources and services.